contact:dominique.lefevre@mio.osupytheas.fr, maurice.libes@osupytheas.fr, didier.mallarino@osupytheas.fr
Project:EMSO http://www.emso-fr.org/EMSO-France
Depth: 2436.0 m
Title:EMSO Ligure Ouest : Data MII capteur AQUADOPP
Date,Latitude,Longitude,X_East,Y_North,Z_Up,Amplitude_X,Amplitude_Y,Amplitude_Z,Batterie,SoundSpeed,Heading,Pitch,Roll,Pressure,TIS,Speed,Direction
, degrees North, degrees East, m.s-1, m.s-1,m.s-1, 1, 1, 1, Volt, m.s-1, degree, degree, degree, dbar, degree_C, m.s-1, degree
2023-04-15T00:04:03,42.805,6.029,0.019,-0.002,-0.021,102.0,101.0,100.0,13.3,1505.2,332.4,-0.8,1.8,2471.383,13.28,0.019,96.0
2023-04-15T00:07:03,42.805,6.029,0.017,0.004,-0.033,104.0,103.0,101.0,13.4,1505.2,326.3,-0.8,1.8,2471.356,13.28,0.017,76.8
2023-04-15T00:10:03,42.805,6.029,0.019,-0.013,-0.018,102.0,103.0,101.0,13.4,1505.2,332.6,-0.8,1.8,2471.369,13.29,0.023,124.4
2023-04-15T00:13:03,42.805,6.029,0.028,0.0,-0.011,104.0,101.0,101.0,13.4,1505.2,333.4,-0.8,1.8,2471.379,13.29,0.028,90.0
2023-04-15T00:16:03,42.805,6.029,0.01,-0.015,-0.032,103.0,103.0,101.0,13.4,1505.2,326.5,-0.7,1.8,2471.339,13.29,0.018,146.3
2023-04-15T00:19:03,42.805,6.029,0.034,0.0,0.019,104.0,103.0,102.0,13.4,1505.2,334.8,-0.8,1.8,2471.335,13.29,0.034,90.0
2023-04-15T00:22:03,42.805,6.029,0.011,-0.009,0.0,103.0,102.0,102.0,13.4,1505.2,338.2,-0.8,1.8,2471.362,13.29,0.014,129.3
2023-04-15T00:25:03,42.805,6.029,0.048,0.0,-0.036,105.0,102.0,101.0,13.4,1505.2,321.2,-0.7,1.8,2471.387,13.29,0.048,90.0
2023-04-15T00:28:03,42.805,6.029,0.007,0.007,0.004,103.0,103.0,102.0,13.4,1505.2,331.4,-0.8,1.8,2471.35,13.29,0.009,45.0
2023-04-15T00:31:03,42.805,6.029,0.034,-0.012,0.013,105.0,104.0,102.0,13.4,1505.2,333.8,-0.7,1.8,2471.348,13.29,0.036,109.4
2023-04-15T00:34:03,42.805,6.029,0.041,-0.008,-0.015,102.0,104.0,102.0,13.3,1505.2,342.1,-0.8,1.8,2471.365,13.29,0.041,101.0
2023-04-15T00:37:03,42.805,6.029,0.024,-0.005,-0.019,104.0,102.0,100.0,13.3,1505.2,336.6,-0.8,1.8,2471.33,13.29,0.024,101.8
2023-04-15T00:40:03,42.805,6.029,0.034,-0.019,-0.014,103.0,101.0,101.0,13.4,1505.2,342.5,-0.7,1.8,2471.375,13.29,0.038,119.2
2023-04-15T00:43:03,42.805,6.029,0.024,-0.017,-0.023,102.0,104.0,101.0,13.3,1505.2,318.2,-0.7,1.8,2471.354,13.29,0.029,125.3
2023-04-15T00:46:03,42.805,6.029,0.019,0.011,0.017,102.0,102.0,102.0,13.4,1505.2,336.5,-0.8,1.8,2471.353,13.29,0.021,59.9
2023-04-15T00:49:03,42.805,6.029,0.017,0.0,-0.02,104.0,102.0,99.0,13.4,1505.2,329.9,-0.7,1.8,2471.38,13.29,0.017,90.0
2023-04-15T00:52:03,42.805,6.029,0.011,-0.005,0.018,102.0,102.0,101.0,13.3,1505.2,331.1,-0.8,1.8,2471.352,13.29,0.012,114.4
2023-04-15T00:55:03,42.805,6.029,0.02,0.0,-0.003,102.0,102.0,100.0,13.3,1505.2,319.8,-0.8,1.8,2471.387,13.29,0.02,90.0
2023-04-15T00:58:03,42.805,6.029,0.027,0.0,0.0,102.0,105.0,101.0,13.4,1505.2,332.5,-0.8,1.8,2471.348,13.29,0.026,90.0
2023-04-15T01:04:03,42.805,6.029,0.015,-0.024,-0.043,105.0,104.0,102.0,13.3,1505.2,331.5,-0.8,1.8,2471.426,13.28,0.028,148.0
2023-04-15T01:07:02,42.805,6.029,0.016,0.005,0.004,103.0,103.0,101.0,13.4,1505.2,324.9,-0.8,1.8,2471.433,13.28,0.016,72.6
2023-04-15T01:10:03,42.805,6.029,-0.001,0.004,-0.062,104.0,102.0,101.0,13.3,1505.2,329.3,-0.7,1.8,2471.393,13.28,0.004,346.0
2023-04-15T01:13:03,42.805,6.029,0.015,0.0,-0.03,103.0,103.0,100.0,13.3,1505.2,332.4,-0.8,1.8,2471.372,13.29,0.015,90.0
2023-04-15T01:16:03,42.805,6.029,0.03,-0.019,-0.014,102.0,102.0,101.0,13.4,1505.2,340.4,-0.8,1.8,2471.408,13.29,0.035,122.3
2023-04-15T01:19:03,42.805,6.029,0.035,-0.01,-0.022,103.0,102.0,101.0,13.4,1505.2,339.8,-0.8,1.8,2471.369,13.29,0.036,105.9
2023-04-15T01:22:03,42.805,6.029,0.031,-0.002,-0.021,103.0,102.0,100.0,13.4,1505.2,320.7,-0.8,1.8,2471.372,13.29,0.031,93.7
2023-04-15T01:25:03,42.805,6.029,0.034,-0.024,-0.056,104.0,100.0,102.0,13.4,1505.2,331.4,-0.8,1.8,2471.378,13.29,0.041,125.2
2023-04-15T01:28:03,42.805,6.029,0.023,-0.014,-0.032,103.0,100.0,102.0,13.3,1505.2,335.8,-0.8,1.8,2471.4,13.29,0.026,121.3
2023-04-15T01:31:03,42.805,6.029,0.032,-0.002,-0.031,103.0,102.0,101.0,13.4,1505.2,339.8,-0.8,1.8,2471.43,13.29,0.032,93.6
2023-04-15T01:34:03,42.805,6.029,0.029,0.01,-0.01,104.0,102.0,103.0,13.4,1505.2,318.0,-0.7,1.8,2471.375,13.29,0.03,71.0
2023-04-15T01:37:03,42.805,6.029,-0.001,0.011,-0.027,103.0,103.0,100.0,13.4,1505.2,334.8,-0.8,1.8,2471.369,13.29,0.011,354.8
2023-04-15T01:40:03,42.805,6.029,0.032,0.01,-0.038,103.0,101.0,102.0,13.4,1505.2,326.0,-0.7,1.8,2471.394,13.29,0.033,72.6
2023-04-15T01:43:03,42.805,6.029,0.036,-0.005,-0.027,102.0,102.0,100.0,13.3,1505.2,325.8,-0.8,1.8,2471.41,13.29,0.036,97.9
2023-04-15T01:46:03,42.805,6.029,0.008,0.01,-0.012,104.0,103.0,100.0,13.4,1505.2,336.6,-0.8,1.8,2471.426,13.29,0.012,38.7
2023-04-15T01:49:03,42.805,6.029,0.033,-0.003,-0.035,103.0,104.0,101.0,13.4,1505.2,320.4,-0.7,1.8,2471.405,13.29,0.033,95.2
2023-04-15T01:52:03,42.805,6.029,0.043,0.001,-0.009,103.0,102.0,100.0,13.4,1505.2,321.7,-0.8,1.8,2471.375,13.29,0.043,88.7
2023-04-15T01:55:03,42.805,6.029,0.025,0.01,-0.013,103.0,103.0,101.0,13.4,1505.2,323.8,-0.8,1.8,2471.411,13.29,0.026,68.2
2023-04-15T01:58:03,42.805,6.029,0.032,-0.015,0.007,104.0,104.0,100.0,13.3,1505.2,338.2,-0.8,1.8,2471.397,13.29,0.035,115.1
2023-04-15T02:04:03,42.805,6.029,0.037,0.002,-0.003,103.0,103.0,101.0,13.3,1505.2,337.4,-0.7,1.8,2471.437,13.28,0.037,86.9
2023-04-15T02:07:03,42.805,6.029,0.023,0.0,-0.016,102.0,102.0,101.0,13.4,1505.2,322.3,-0.8,1.8,2471.428,13.28,0.023,90.0
2023-04-15T02:10:03,42.805,6.029,0.031,-0.025,-0.038,103.0,101.0,103.0,13.4,1505.2,334.9,-0.8,1.9,2471.414,13.29,0.039,128.9
2023-04-15T02:13:03,42.805,6.029,0.012,0.009,-0.023,103.0,103.0,101.0,13.4,1505.2,325.5,-0.7,1.8,2471.408,13.29,0.015,53.1
2023-04-15T02:16:03,42.805,6.029,0.024,-0.015,-0.009,103.0,102.0,100.0,13.4,1505.2,324.7,-0.8,1.8,2471.425,13.29,0.028,122.0
2023-04-15T02:19:03,42.805,6.029,0.035,0.006,0.0,103.0,102.0,101.0,13.4,1505.2,323.9,-0.8,1.8,2471.423,13.29,0.035,80.3
2023-04-15T02:22:03,42.805,6.029,0.013,0.038,0.022,102.0,104.0,101.0,13.4,1505.2,318.8,-0.7,1.8,2471.434,13.29,0.04,18.9
2023-04-15T02:25:03,42.805,6.029,0.013,0.0,-0.045,103.0,104.0,101.0,13.4,1505.2,326.3,-0.8,1.8,2471.442,13.29,0.013,90.0
2023-04-15T02:28:03,42.805,6.029,0.013,0.003,-0.032,105.0,104.0,100.0,13.3,1505.2,325.3,-0.8,1.8,2471.42,13.29,0.013,77.0
2023-04-15T02:31:03,42.805,6.029,0.027,-0.009,-0.044,101.0,103.0,103.0,13.3,1505.2,329.8,-0.8,1.8,2471.442,13.29,0.028,108.4
2023-04-15T02:34:03,42.805,6.029,0.029,0.013,0.02,102.0,104.0,101.0,13.4,1505.2,333.8,-0.8,1.8,2471.392,13.29,0.031,65.9
2023-04-15T02:37:03,42.805,6.029,0.007,-0.011,-0.037,101.0,102.0,101.0,13.4,1505.2,330.0,-0.8,1.8,2471.381,13.29,0.013,147.5
2023-04-15T02:40:03,42.805,6.029,0.038,-0.014,-0.04,103.0,102.0,101.0,13.3,1505.2,336.6,-0.8,1.8,2471.416,13.29,0.04,110.2
2023-04-15T02:43:03,42.805,6.029,0.047,-0.025,-0.015,104.0,102.0,100.0,13.4,1505.2,336.1,-0.7,1.8,2471.406,13.29,0.053,118.0
2023-04-15T02:46:03,42.805,6.029,0.04,-0.001,-0.013,102.0,104.0,101.0,13.4,1505.2,332.1,-0.7,1.8,2471.42,13.29,0.04,91.4
2023-04-15T02:49:03,42.805,6.029,0.035,-0.004,-0.005,102.0,103.0,100.0,13.3,1505.2,335.2,-0.8,1.8,2471.43,13.29,0.035,96.5
2023-04-15T02:52:03,42.805,6.029,0.022,0.004,-0.005,103.0,102.0,100.0,13.4,1505.2,332.1,-0.7,1.8,2471.416,13.29,0.022,79.7
2023-04-15T02:55:03,42.805,6.029,0.036,-0.011,-0.006,104.0,101.0,101.0,13.4,1505.2,344.2,-0.7,1.8,2471.39,13.29,0.037,107.0
2023-04-15T02:58:03,42.805,6.029,0.019,-0.003,-0.021,104.0,103.0,100.0,13.4,1505.2,326.0,-0.8,1.8,2471.414,13.29,0.019,99.0
2023-04-15T03:04:03,42.805,6.029,0.031,0.007,-0.046,102.0,102.0,101.0,13.3,1505.2,320.4,-0.8,1.8,2471.452,13.28,0.031,77.3
2023-04-15T03:07:03,42.805,6.029,0.036,-0.003,-0.006,102.0,103.0,101.0,13.4,1505.2,332.9,-0.8,1.8,2471.448,13.28,0.036,94.8
2023-04-15T03:10:03,42.805,6.029,0.025,0.002,-0.022,103.0,102.0,102.0,13.4,1505.2,322.3,-0.7,1.8,2471.455,13.29,0.025,85.4
2023-04-15T03:13:03,42.805,6.029,0.003,0.004,-0.025,103.0,102.0,100.0,13.4,1505.2,329.5,-0.8,1.8,2471.437,13.29,0.005,36.9
2023-04-15T03:16:03,42.805,6.029,0.027,0.007,-0.032,103.0,104.0,101.0,13.4,1505.2,322.1,-0.7,1.8,2471.467,13.29,0.027,75.5
2023-04-15T03:19:03,42.805,6.029,0.018,0.008,-0.005,102.0,101.0,101.0,13.4,1505.2,334.8,-0.7,1.8,2471.402,13.29,0.019,66.0
2023-04-15T03:22:03,42.805,6.029,0.035,0.01,-0.015,102.0,103.0,100.0,13.4,1505.2,324.5,-0.8,1.9,2471.404,13.29,0.036,74.1
2023-04-15T03:25:03,42.805,6.029,0.03,-0.013,-0.01,103.0,102.0,101.0,13.4,1505.2,336.1,-0.7,1.8,2471.424,13.29,0.032,113.4
2023-04-15T03:28:03,42.805,6.029,0.028,0.009,0.0,104.0,103.0,101.0,13.4,1505.2,322.9,-0.8,1.8,2471.403,13.29,0.029,72.2
2023-04-15T03:31:03,42.805,6.029,0.026,0.0,-0.029,103.0,103.0,101.0,13.4,1505.2,338.7,-0.8,1.8,2471.397,13.29,0.026,90.0
2023-04-15T03:34:03,42.805,6.029,0.021,0.003,-0.023,102.0,103.0,101.0,13.4,1505.2,338.0,-0.8,1.8,2471.394,13.29,0.021,81.9
2023-04-15T03:37:03,42.805,6.029,0.035,-0.004,0.0,103.0,103.0,100.0,13.3,1505.2,322.9,-0.7,1.8,2471.386,13.29,0.035,96.5
2023-04-15T03:40:03,42.805,6.029,0.031,-0.003,-0.037,102.0,103.0,101.0,13.3,1505.2,324.1,-0.8,1.8,2471.399,13.29,0.031,95.5
2023-04-15T03:43:03,42.805,6.029,0.017,-0.008,-0.038,102.0,104.0,101.0,13.3,1505.2,340.8,-0.8,1.8,2471.414,13.29,0.018,115.2
2023-04-15T03:46:03,42.805,6.029,0.035,-0.018,-0.016,102.0,104.0,100.0,13.3,1505.2,341.2,-0.7,1.8,2471.415,13.29,0.039,117.2
2023-04-15T03:49:03,42.805,6.029,0.022,0.006,-0.01,104.0,102.0,100.0,13.3,1505.2,328.1,-0.8,1.8,2471.401,13.29,0.022,74.7
2023-04-15T03:52:03,42.805,6.029,0.03,-0.011,0.002,102.0,103.0,101.0,13.4,1505.2,328.3,-0.8,1.8,2471.425,13.29,0.031,110.1
2023-04-15T03:55:03,42.805,6.029,0.023,0.004,-0.008,103.0,103.0,101.0,13.4,1505.2,338.2,-0.7,1.8,2471.424,13.29,0.023,80.1
2023-04-15T03:58:03,42.805,6.029,0.023,-0.004,-0.007,101.0,103.0,101.0,13.4,1505.2,324.2,-0.8,1.8,2471.445,13.29,0.023,99.9
2023-04-15T04:04:03,42.805,6.029,0.04,0.025,-0.001,102.0,103.0,100.0,13.3,1505.2,320.6,-0.8,1.8,2471.402,13.28,0.047,58.0
2023-04-15T04:07:03,42.805,6.029,0.023,0.008,-0.006,102.0,103.0,100.0,13.4,1505.2,335.7,-0.8,1.8,2471.439,13.28,0.024,70.8
2023-04-15T04:10:03,42.805,6.029,0.04,0.005,-0.041,101.0,104.0,101.0,13.4,1505.2,327.5,-0.8,1.8,2471.468,13.28,0.04,82.9
2023-04-15T04:13:03,42.805,6.029,0.0,-0.002,-0.015,102.0,102.0,102.0,13.4,1505.2,342.2,-0.8,1.8,2471.444,13.29,0.002,180.0
2023-04-15T04:16:03,42.805,6.029,0.018,0.01,0.015,102.0,102.0,101.0,13.4,1505.2,319.7,-0.7,1.9,2471.424,13.29,0.02,60.9
2023-04-15T04:19:03,42.805,6.029,0.015,0.012,-0.013,103.0,102.0,100.0,13.4,1505.2,339.0,-0.8,1.8,2471.453,13.29,0.019,51.3
2023-04-15T04:22:03,42.805,6.029,0.015,0.018,-0.005,103.0,100.0,100.0,13.4,1505.2,320.6,-0.8,1.8,2471.437,13.29,0.023,39.8
2023-04-15T04:25:03,42.805,6.029,0.01,0.012,-0.021,101.0,103.0,101.0,13.3,1505.2,332.9,-0.8,1.8,2471.439,13.29,0.015,39.8
2023-04-15T04:28:03,42.805,6.029,0.033,-0.011,0.009,102.0,103.0,100.0,13.4,1505.2,327.5,-0.8,1.8,2471.427,13.29,0.034,108.4
2023-04-15T04:31:03,42.805,6.029,0.049,0.01,0.027,103.0,102.0,101.0,13.4,1505.2,333.0,-0.8,1.8,2471.419,13.29,0.05,78.5
2023-04-15T04:34:03,42.805,6.029,0.04,-0.012,-0.007,102.0,100.0,102.0,13.4,1505.2,334.7,-0.8,1.8,2471.444,13.29,0.041,106.7
2023-04-15T04:37:03,42.805,6.029,0.014,-0.01,-0.018,102.0,102.0,101.0,13.4,1505.2,324.4,-0.7,1.8,2471.437,13.29,0.017,125.5
2023-04-15T04:40:03,42.805,6.029,0.031,-0.007,-0.038,104.0,101.0,101.0,13.3,1505.2,333.8,-0.8,1.8,2471.421,13.29,0.031,102.7
2023-04-15T04:43:03,42.805,6.029,0.041,-0.002,-0.021,103.0,101.0,101.0,13.4,1505.2,326.3,-0.8,1.8,2471.429,13.29,0.041,92.8
2023-04-15T04:46:03,42.805,6.029,0.027,0.0,-0.041,101.0,104.0,101.0,13.3,1505.2,325.5,-0.8,1.8,2471.438,13.29,0.026,90.0
2023-04-15T04:49:03,42.805,6.029,0.049,-0.02,-0.029,103.0,102.0,101.0,13.4,1505.2,335.7,-0.8,1.8,2471.412,13.29,0.052,112.2
2023-04-15T04:52:03,42.805,6.029,0.039,0.027,-0.006,102.0,103.0,100.0,13.4,1505.2,325.7,-0.8,1.8,2471.403,13.29,0.047,55.3
2023-04-15T04:55:03,42.805,6.029,0.043,0.005,-0.017,103.0,102.0,101.0,13.3,1505.2,325.0,-0.7,1.8,2471.41,13.29,0.043,83.4
2023-04-15T04:58:03,42.805,6.029,0.025,0.005,-0.004,101.0,102.0,101.0,13.4,1505.2,333.8,-0.8,1.8,2471.435,13.29,0.025,78.7
2023-04-15T05:04:03,42.805,6.029,0.037,0.003,-0.011,102.0,102.0,101.0,13.3,1505.2,337.6,-0.8,1.8,2471.495,13.28,0.037,85.4
2023-04-15T05:07:03,42.805,6.029,0.029,-0.001,0.01,102.0,102.0,100.0,13.4,1505.2,318.8,-0.8,1.9,2471.426,13.28,0.029,92.0
2023-04-15T05:10:03,42.805,6.029,0.0,-0.001,-0.063,101.0,102.0,101.0,13.4,1505.2,320.8,-0.8,1.8,2471.443,13.29,0.001,180.0
2023-04-15T05:13:03,42.805,6.029,0.026,-0.006,-0.028,103.0,101.0,101.0,13.4,1505.2,331.9,-0.7,1.8,2471.441,13.29,0.026,103.0
2023-04-15T05:16:03,42.805,6.029,0.038,0.006,0.012,102.0,102.0,101.0,13.3,1505.2,340.8,-0.8,1.8,2471.453,13.29,0.038,81.0
2023-04-15T05:19:03,42.805,6.029,0.036,0.007,-0.016,101.0,103.0,100.0,13.4,1505.2,331.8,-0.8,1.8,2471.438,13.29,0.036,79.0
2023-04-15T05:22:03,42.805,6.029,0.021,0.023,-0.004,102.0,102.0,101.0,13.3,1505.2,329.0,-0.8,1.8,2471.449,13.29,0.031,42.4
2023-04-15T05:25:03,42.805,6.029,0.023,-0.021,-0.047,105.0,102.0,100.0,13.4,1505.2,330.3,-0.7,1.8,2471.41,13.29,0.031,132.4
2023-04-15T05:28:03,42.805,6.029,0.033,-0.004,-0.008,102.0,102.0,101.0,13.3,1505.2,331.8,-0.8,1.8,2471.441,13.29,0.033,96.9
2023-04-15T05:31:03,42.805,6.029,0.028,-0.008,-0.035,102.0,102.0,101.0,13.4,1505.2,326.8,-0.7,1.8,2471.423,13.29,0.029,105.9
2023-04-15T05:34:03,42.805,6.029,0.019,0.017,-0.033,103.0,103.0,100.0,13.3,1505.2,328.6,-0.7,1.8,2471.402,13.29,0.025,48.2
2023-04-15T05:37:03,42.805,6.029,0.013,0.015,-0.007,103.0,103.0,100.0,13.4,1505.2,335.7,-0.8,1.8,2471.433,13.29,0.019,40.9
2023-04-15T05:40:03,42.805,6.029,0.032,-0.001,0.001,102.0,104.0,101.0,13.4,1505.2,318.2,-0.7,1.8,2471.422,13.29,0.032,91.8
2023-04-15T05:43:03,42.805,6.029,0.043,0.011,-0.012,103.0,102.0,101.0,13.4,1505.2,319.9,-0.8,1.8,2471.389,13.29,0.044,75.7
2023-04-15T05:46:03,42.805,6.029,0.02,0.01,-0.017,103.0,104.0,101.0,13.4,1505.2,333.4,-0.7,1.8,2471.414,13.29,0.022,63.4
2023-04-15T05:49:03,42.805,6.029,0.02,-0.002,-0.011,102.0,102.0,101.0,13.4,1505.2,334.4,-0.8,1.8,2471.422,13.29,0.02,95.7
2023-04-15T05:52:03,42.805,6.029,0.03,0.007,-0.02,102.0,102.0,100.0,13.4,1505.2,330.0,-0.8,1.8,2471.389,13.29,0.03,76.9
2023-04-15T05:55:03,42.805,6.029,0.018,-0.001,-0.017,102.0,102.0,100.0,13.3,1505.2,331.0,-0.8,1.8,2471.39,13.29,0.018,93.2
2023-04-15T05:58:03,42.805,6.029,0.026,-0.018,-0.022,102.0,103.0,101.0,13.3,1505.2,343.6,-0.8,1.8,2471.397,13.29,0.031,124.7
2023-04-15T06:04:03,42.805,6.029,0.038,0.001,0.004,102.0,101.0,100.0,13.3,1505.2,331.6,-0.8,1.8,2471.425,13.28,0.038,88.5
2023-04-15T06:07:03,42.805,6.029,0.03,-0.004,0.015,103.0,101.0,101.0,13.4,1505.2,334.7,-0.8,1.8,2471.42,13.28,0.03,97.6
2023-04-15T06:10:03,42.805,6.029,0.027,0.0,-0.007,102.0,103.0,100.0,13.3,1505.2,334.4,-0.8,1.9,2471.396,13.28,0.026,90.0
2023-04-15T06:13:03,42.805,6.029,0.014,-0.014,-0.045,102.0,103.0,99.0,13.4,1505.2,333.0,-0.8,1.8,2471.37,13.29,0.019,135.0
2023-04-15T06:16:03,42.805,6.029,0.047,0.003,0.016,102.0,102.0,100.0,13.4,1505.2,337.1,-0.8,1.8,2471.397,13.29,0.047,86.4
2023-04-15T06:19:03,42.805,6.029,0.035,-0.013,-0.023,101.0,102.0,101.0,13.4,1505.2,342.2,-0.8,1.8,2471.393,13.29,0.037,110.4
2023-04-15T06:22:03,42.805,6.029,0.027,0.006,-0.041,102.0,101.0,101.0,13.4,1505.2,322.1,-0.8,1.8,2471.384,13.29,0.027,77.5
2023-04-15T06:25:03,42.805,6.029,0.034,0.006,0.027,103.0,100.0,99.0,13.3,1505.2,346.2,-0.8,1.8,2471.411,13.29,0.034,80.0
2023-04-15T06:28:03,42.805,6.029,0.03,0.018,0.005,102.0,102.0,100.0,13.4,1505.2,322.7,-0.8,1.8,2471.418,13.29,0.034,59.0
2023-04-15T06:31:03,42.805,6.029,0.028,0.005,-0.015,102.0,102.0,100.0,13.4,1505.2,334.6,-0.8,1.8,2471.361,13.29,0.028,79.9
2023-04-15T06:34:03,42.805,6.029,0.036,-0.014,-0.033,102.0,101.0,102.0,13.3,1505.2,340.9,-0.8,1.8,2471.391,13.29,0.038,111.2
2023-04-15T06:37:03,42.805,6.029,0.013,0.039,0.027,101.0,101.0,101.0,13.4,1505.2,329.9,-0.8,1.8,2471.402,13.29,0.041,18.4
2023-04-15T06:40:03,42.805,6.029,0.043,0.003,-0.036,104.0,102.0,101.0,13.4,1505.2,335.0,-0.8,1.8,2471.396,13.29,0.043,86.0
2023-04-15T06:43:03,42.805,6.029,0.014,0.014,-0.019,103.0,102.0,100.0,13.4,1505.2,333.4,-0.8,1.8,2471.362,13.29,0.019,45.0
2023-04-15T06:46:03,42.805,6.029,0.03,-0.004,0.002,101.0,102.0,101.0,13.3,1505.2,340.8,-0.8,1.8,2471.338,13.29,0.03,97.6
2023-04-15T06:49:03,42.805,6.029,0.027,-0.014,-0.04,100.0,103.0,101.0,13.3,1505.2,326.5,-0.8,1.8,2471.361,13.29,0.03,117.4
2023-04-15T06:52:03,42.805,6.029,0.015,-0.001,-0.029,102.0,103.0,102.0,13.4,1505.2,324.4,-0.8,1.8,2471.356,13.29,0.015,93.8
2023-04-15T06:55:03,42.805,6.029,0.027,0.008,0.0,102.0,102.0,101.0,13.4,1505.2,331.0,-0.7,1.8,2471.392,13.29,0.028,73.5
2023-04-15T06:58:03,42.805,6.029,0.023,-0.012,-0.016,103.0,102.0,101.0,13.4,1505.2,341.5,-0.8,1.8,2471.376,13.29,0.025,117.6
2023-04-15T07:04:03,42.805,6.029,0.016,-0.006,-0.009,103.0,102.0,101.0,13.4,1505.2,325.6,-0.8,1.8,2471.408,13.28,0.017,110.6
2023-04-15T07:07:03,42.805,6.029,0.012,-0.015,-0.031,103.0,103.0,101.0,13.3,1505.2,328.7,-0.8,1.8,2471.407,13.28,0.019,141.3
2023-04-15T07:10:03,42.805,6.029,0.0,0.0,-0.005,103.0,102.0,101.0,13.3,1505.2,329.3,-0.8,1.8,2471.356,13.29,0.0,0.0
2023-04-15T07:13:03,42.805,6.029,0.03,0.009,-0.034,103.0,104.0,100.0,13.3,1505.2,322.5,-0.8,1.8,2471.375,13.29,0.031,73.3
2023-04-15T07:16:03,42.805,6.029,0.03,-0.005,-0.012,103.0,102.0,101.0,13.4,1505.2,328.8,-0.8,1.8,2471.383,13.29,0.03,99.5
2023-04-15T07:19:03,42.805,6.029,0.028,-0.009,-0.038,103.0,103.0,100.0,13.4,1505.2,336.2,-0.8,1.8,2471.343,13.29,0.029,107.8
2023-04-15T07:22:03,42.805,6.029,0.021,0.002,-0.027,101.0,103.0,101.0,13.3,1505.2,334.2,-0.8,1.8,2471.339,13.29,0.021,84.6
2023-04-15T07:25:03,42.805,6.029,0.011,0.006,-0.028,102.0,101.0,100.0,13.3,1505.2,336.9,-0.8,1.8,2471.348,13.29,0.012,61.4
2023-04-15T07:28:03,42.805,6.029,0.02,0.01,0.002,103.0,102.0,101.0,13.4,1505.2,326.5,-0.8,1.8,2471.329,13.29,0.022,63.4
2023-04-15T07:31:03,42.805,6.029,0.032,-0.009,-0.028,102.0,103.0,101.0,13.3,1505.2,325.0,-0.8,1.8,2471.389,13.29,0.033,105.7
2023-04-15T07:34:03,42.805,6.029,0.023,-0.009,-0.036,104.0,103.0,101.0,13.3,1505.2,333.8,-0.8,1.8,2471.352,13.29,0.024,111.4
2023-04-15T07:37:03,42.805,6.029,0.017,0.02,-0.009,100.0,102.0,101.0,13.4,1505.2,329.9,-0.8,1.8,2471.363,13.29,0.026,40.4
2023-04-15T07:40:03,42.805,6.029,0.028,0.015,-0.018,103.0,103.0,102.0,13.4,1505.2,334.2,-0.8,1.8,2471.316,13.29,0.031,61.8
2023-04-15T07:43:03,42.805,6.029,0.018,-0.014,-0.012,101.0,102.0,100.0,13.4,1505.2,326.0,-0.8,1.8,2471.336,13.29,0.022,127.9
2023-04-15T07:46:03,42.805,6.029,0.013,-0.018,-0.048,104.0,104.0,101.0,13.3,1505.2,323.6,-0.7,1.8,2471.359,13.29,0.022,144.2
2023-04-15T07:49:03,42.805,6.029,0.046,0.005,-0.003,104.0,105.0,100.0,13.4,1505.2,323.1,-0.8,1.8,2471.301,13.29,0.046,83.8
2023-04-15T07:52:03,42.805,6.029,0.022,-0.001,0.0,103.0,101.0,101.0,13.3,1505.2,333.0,-0.8,1.8,2471.316,13.29,0.022,92.6
2023-04-15T07:55:03,42.805,6.029,0.022,0.006,-0.018,103.0,102.0,100.0,13.4,1505.2,329.0,-0.7,1.8,2471.34,13.29,0.022,74.7
2023-04-15T07:58:03,42.805,6.029,0.016,-0.007,-0.029,102.0,102.0,101.0,13.4,1505.2,337.2,-0.8,1.8,2471.33,13.29,0.017,113.6
2023-04-15T08:04:03,42.805,6.029,0.032,0.023,0.027,102.0,102.0,102.0,13.4,1505.2,317.4,-0.8,1.8,2471.328,13.28,0.039,54.3
2023-04-15T08:07:03,42.805,6.029,0.032,-0.005,-0.035,103.0,102.0,101.0,13.3,1505.2,334.8,-0.7,1.8,2471.361,13.28,0.032,98.9
2023-04-15T08:10:03,42.805,6.029,0.022,-0.01,-0.021,102.0,103.0,101.0,13.4,1505.2,339.7,-0.8,1.8,2471.365,13.29,0.024,114.4
2023-04-15T08:13:03,42.805,6.029,0.002,-0.002,-0.011,102.0,102.0,101.0,13.4,1505.2,316.8,-0.7,1.8,2471.373,13.29,0.002,135.0
2023-04-15T08:16:03,42.805,6.029,0.0,-0.007,-0.06,103.0,102.0,101.0,13.4,1505.2,319.2,-0.7,1.8,2471.381,13.29,0.007,180.0
2023-04-15T08:19:03,42.805,6.029,0.019,-0.005,-0.016,103.0,105.0,101.0,13.4,1505.2,324.0,-0.8,1.8,2471.335,13.29,0.019,104.7
2023-04-15T08:22:03,42.805,6.029,0.028,-0.013,-0.03,103.0,102.0,100.0,13.4,1505.2,338.7,-0.8,1.8,2471.333,13.29,0.03,114.9
2023-04-15T08:25:03,42.805,6.029,0.013,0.034,-0.002,103.0,102.0,102.0,13.4,1505.2,317.6,-0.8,1.8,2471.348,13.29,0.036,20.9
2023-04-15T08:28:03,42.805,6.029,0.025,0.014,0.006,103.0,102.0,101.0,13.4,1505.2,325.7,-0.8,1.8,2471.345,13.29,0.028,60.7
2023-04-15T08:31:03,42.805,6.029,0.017,-0.001,-0.023,103.0,104.0,101.0,13.4,1505.2,327.0,-0.8,1.8,2471.374,13.29,0.017,93.4
2023-04-15T08:34:03,42.805,6.029,0.018,0.018,0.005,102.0,103.0,102.0,13.4,1505.2,339.1,-0.8,1.8,2471.331,13.29,0.025,45.0
2023-04-15T08:37:03,42.805,6.029,0.018,-0.007,0.003,103.0,103.0,101.0,13.4,1505.2,337.0,-0.8,1.8,2471.265,13.29,0.019,111.2
2023-04-15T08:40:03,42.805,6.029,0.044,-0.005,-0.02,103.0,102.0,101.0,13.4,1505.2,336.9,-0.8,1.8,2471.317,13.29,0.044,96.5
2023-04-15T08:43:03,42.805,6.029,0.036,-0.007,-0.037,103.0,102.0,101.0,13.4,1505.2,327.9,-0.7,1.8,2471.29,13.29,0.036,101.0
2023-04-15T08:46:03,42.805,6.029,0.038,-0.013,-0.007,103.0,103.0,100.0,13.4,1505.2,337.0,-0.8,1.8,2471.318,13.29,0.04,108.9
2023-04-15T08:49:03,42.805,6.029,0.038,0.0,-0.006,104.0,104.0,100.0,13.4,1505.2,333.8,-0.8,1.8,2471.274,13.29,0.038,90.0
2023-04-15T08:52:03,42.805,6.029,0.017,-0.005,-0.03,103.0,102.0,101.0,13.4,1505.2,331.3,-0.8,1.8,2471.363,13.29,0.017,106.4
2023-04-15T08:55:03,42.805,6.029,0.027,-0.002,-0.024,102.0,101.0,101.0,13.4,1505.2,340.2,-0.7,1.8,2471.303,13.29,0.027,94.2
2023-04-15T08:58:03,42.805,6.029,0.04,0.008,-0.004,103.0,104.0,100.0,13.3,1505.2,333.4,-0.8,1.8,2471.32,13.29,0.04,78.7
2023-04-15T09:04:03,42.805,6.029,0.051,-0.003,-0.022,102.0,102.0,100.0,13.4,1505.2,329.0,-0.7,1.9,2471.345,13.28,0.051,93.4
2023-04-15T09:07:03,42.805,6.029,0.021,0.004,-0.003,100.0,102.0,101.0,13.4,1505.2,324.5,-0.8,1.8,2471.367,13.28,0.021,79.2
2023-04-15T09:10:03,42.805,6.029,0.031,-0.021,-0.03,102.0,103.0,100.0,13.3,1505.2,340.4,-0.8,1.8,2471.342,13.28,0.037,124.1
2023-04-15T09:13:03,42.805,6.029,0.042,-0.032,-0.033,102.0,101.0,100.0,13.3,1505.2,333.0,-0.8,1.8,2471.329,13.29,0.052,127.3
2023-04-15T09:16:03,42.805,6.029,0.009,-0.005,-0.031,103.0,102.0,101.0,13.4,1505.2,329.1,-0.8,1.8,2471.33,13.29,0.01,119.1
2023-04-15T09:19:03,42.805,6.029,0.009,-0.011,-0.07,103.0,102.0,100.0,13.3,1505.2,327.0,-0.8,1.8,2471.3,13.29,0.014,140.7
2023-04-15T09:22:03,42.805,6.029,0.036,-0.001,0.004,103.0,102.0,101.0,13.3,1505.2,338.0,-0.7,1.8,2471.299,13.29,0.036,91.6
2023-04-15T09:25:03,42.805,6.029,0.023,0.039,0.017,102.0,103.0,100.0,13.4,1505.2,330.8,-0.8,1.8,2471.31,13.29,0.045,30.5
2023-04-15T09:28:03,42.805,6.029,0.027,0.02,0.01,102.0,103.0,101.0,13.3,1505.2,331.0,-0.8,1.8,2471.27,13.29,0.033,53.5
2023-04-15T09:31:03,42.805,6.029,0.03,-0.007,-0.032,102.0,103.0,100.0,13.3,1505.2,316.7,-0.7,1.8,2471.297,13.29,0.03,103.1
2023-04-15T09:34:03,42.805,6.029,0.035,-0.006,-0.033,103.0,100.0,100.0,13.4,1505.2,329.3,-0.8,1.8,2471.285,13.29,0.035,99.7
2023-04-15T09:37:03,42.805,6.029,0.019,-0.01,0.018,103.0,101.0,101.0,13.4,1505.2,324.0,-0.8,1.8,2471.279,13.29,0.021,117.8
2023-04-15T09:40:03,42.805,6.029,0.031,-0.009,-0.016,101.0,104.0,101.0,13.4,1505.2,340.4,-0.7,1.8,2471.311,13.29,0.032,106.2
2023-04-15T09:43:03,42.805,6.029,0.019,0.001,-0.041,102.0,102.0,100.0,13.4,1505.2,343.2,-0.8,1.8,2471.304,13.29,0.019,87.0
2023-04-15T09:46:03,42.805,6.029,0.033,-0.018,-0.026,101.0,104.0,100.0,13.4,1505.2,324.3,-0.8,1.8,2471.265,13.29,0.037,118.6
2023-04-15T09:49:03,42.805,6.029,0.012,-0.001,-0.016,103.0,102.0,102.0,13.4,1505.2,331.0,-0.8,1.8,2471.303,13.29,0.012,94.8
2023-04-15T09:52:03,42.805,6.029,0.067,-0.019,-0.019,102.0,102.0,100.0,13.4,1505.2,325.8,-0.8,1.8,2471.283,13.29,0.069,105.8
2023-04-15T09:55:03,42.805,6.029,0.013,0.0,0.003,100.0,102.0,101.0,13.4,1505.2,331.0,-0.7,1.8,2471.259,13.29,0.013,90.0
2023-04-15T09:58:03,42.805,6.029,0.016,0.012,-0.01,102.0,102.0,100.0,13.3,1505.2,325.5,-0.7,1.8,2471.308,13.29,0.02,53.1
2023-04-15T10:04:03,42.805,6.029,0.049,-0.004,0.002,102.0,103.0,101.0,13.4,1505.2,345.4,-0.8,1.8,2471.304,13.28,0.049,94.7